Location: Austin
(30.3000°N, 97.7500°W)
Time: 01:56:43
(UTC-05:00)

Cosmos 2298 Rocket - Pass Details

Date: 15 May 2024
Orbit: 774 x 783 km, 74.0° (Epoch: 29 May)

Event Time Altitude Azimuth Distance (km) Brightness Sun altitude
Rises 20:55:38 0° 347° (NNW) 3,272 7.9 -8.1°
Reaches altitude 10° 20:58:03 10° 350° (N) 2,341 7.1 -8.5°
Maximum altitude 21:03:21 69° 73° (ENE) 836 4.1 -9.5°
Drops below altitude 10° 21:08:37 10° 157° (SSE) 2,327 6.0 -10.5°
Enters shadow 21:09:22 - 158° (SSE) 2,611 6.3 -10.7°
